Погода в Лимерике

Ирландия     52°39′41″N   8°37′17″W
темп.,
°C
ветер,
м/с
пор.,
м/с
влажн.,
%
обл.,
%
осадки,
мм/ч
давл.,
гПа
погр.,
м
16 сентября, чт
чт1601:00+9ю11955 0.0 101810
04:00+9ю229427 0.0 101720
07:00+11ююв2388100 0.0 1017104
10:00+13ююв3581100 0.0 1016215
13:00+17ю4886100 0.0 1015586
16:00+18ю71081100 0.2 1013874
19:00+16ю7128768 0.3 1012698
22:00+15ююв61489100 0.0 1011705
17 сентября, пт
пт1701:00+15ююв61396100 0.2 1009763
04:00+16ююв71496100 0.6 1006772
07:00+15зюз2599100 4.3 1005418
10:00+14з2797100 4.1 1006528
13:00+15зсз2493100 6.8 1007380
16:00+14зсз2695100 0.3 1008439
19:00+14з2694100 0.4 1009313
22:00+12зсз249693 0.0 1011127
18 сентября, сб
сб1801:00+10зсз229732 0.0 101216
04:00+9зсз119793 0.0 101210
07:00+8зюз1195100 0.0 101310
10:00+12зюз128813 0.0 1014232
13:00+16зюз236544 0.0 10141233
16:00+15ююз2370100 0.1 1013593
19:00+14ю117586 0.1 101210
22:00+13ююв227662 0.0 101338
19 сентября, вс
вс1901:00+10юв239399 0.0 101239
04:00+11вюв2491100 0.3 1012106
07:00+11вюв2497100 1.2 1013119
10:00+12в2397100 0.4 1014110
13:00+13в2495100 0.7 1015279
16:00+14св2595100 0.5 1016303
19:00+13св2395100 0.5 101762
22:00+12св22965 0.0 101934
20 сентября, пн
пн2001:00+11ссв229699 0.0 102052
04:00+11ссв2296100 0.0 102165
07:00+11ссв2398100 0.0 102283
10:00+14ссв359390 0.0 1023396
13:00+16св348398 0.0 1024576
16:00+17св347773 0.0 1024583
19:00+15ссв35850 0.0 1025167
22:00+11св22930 0.0 102622